SCOUT D-1 R/B, 10462

Orbit data source: Space-Track

SCOUT D-1 R/B, 10462 is space debris in LEO originally from a launch on Fri, 28 Oct 1977 UTC launched from the Air Force Western Test Range (AFWTR). Debris objects in space refer to the collection of defunct objects orbiting the Earth. Examples of debris include non-operational satellites, rocket bodies, and fragments generated from explosions, collisions, or faulty payload assembly.

Loading next visibility...
Identifier
10462, 1977-106B
Orbit
LEO
Country
Flag of USUS
Related business
Manufacturer
Thiokol/TE
Mission
Spacecraft
Bus & Motor
STAR 20, Unknown motor
Mass
31 kg wet, 31 kg dry
Launch date (UTC)
1977-10-28 (49 years ago)
Launch vehicle
Unknown
Launch site
Air Force Western Test Range (AFWTR)
Object type
Payload
Rocket body
Debris
Shape & HBR
Unknown
Radar Cross Section
Medium (>0.1 m² and <1 m²)

Expand to show TLE details & history
Last TLE update: 2 days ago

TLE from 2 days ago
0 SCOUT D-1 R/B
1 10462U 77106B   26171.45643853  .00000067  00000-0  91268-4 0  9992
2 10462  89.6482  71.7324 0026440  40.3758 134.7253 13.48457251817303
Epoch: 2026-06-20T10:57Z
TLE epoch observation values (Epoch: 2026-06-20T10:57:16.288Z)
Latitude
4.59666°
Longitude
178.71559°
Altitude
1,094.314 km
Speed
7.299 km/s
True Right ascension
16h 46m 49s
True Declination
4° 34' 14"
Sunlit
Object was in full shadow at epoch
Visualization orbit readout
Latitude
Unknown
Longitude
Unknown
Altitude
Unknown
Speed
Unknown
Apparent Right ascension
Unknown
Apparent Declination
Unknown
Sunlit
N/A
Visualization observer readout
Local Sidereal Time
23:08:11
Azimuth
Unknown
Elevation
Unknown
Doppler factor
Unknown
Orbital elements
Apogee altitude
1,094.698 km
Perigee altitude
1,055.286 km
Semi-major axis
7,453.129 km
Eccentricity
0.00264
Inclination
89.6482°
RAAN
71.7324°
Arg. of periapsis
40.3758°
True anomaly
134.94006°
Mean anomaly
134.7253°
Eccentric anomaly
134.83273°
Mean motion
3.37315 °/min
Orbital period
106.73 mins
BSTAR
0.000091268
Loading maneuver chart data...
Computing Atmospheric mass density...
Loading historical data...
Loading historical data...
Loading historical data...
Loading historical data...
Loading historical data...
Loading historical data...
Loading historical data...
Other satellites on launch #106 in the year 1977 (1977-10-28 UTC)

Documentation

Showing up to 5 results
|